Zacatecas Airport, Mexico

1:08 AM CDT on April 26, 2017 (GMT -0500)
Gen Leobardo C Ruiz International

Weather History for MMZC - November, 2012

Change the Weather History Date:

Friday, November 23, 2012

  Actual Average Record
Temperature  
Mean Temperature 60 °F -  
Max Temperature 71 °F 68 °F 78 °F (2010)
Min Temperature 48 °F 35 °F 28 °F (2002)
Degree Days  
Heating Degree Days 6    
Growing Degree Days 10 (Base 50)    
Moisture  
Dew Point 42 °F    
Average Humidity 64    
Maximum Humidity 82    
Minimum Humidity 29    
Precipitation  
Precipitation 0.00 in - - ()
Sea Level Pressure  
Sea Level Pressure 30.36 in    
Wind  
Wind Speed 7 mph ()    
Max Wind Speed 16 mph    
Max Gust Speed -    
Visibility 9.2 miles    
Events Rain    
Averages and records for this station are not official NWS values.
T = Trace of Precipitation, MM = Missing Value Source: Averaged Metar Reports

Daily Weather History Graph

Daily Weather History Graph

Search for Another Location

Airport or City:

Trip Planner

Search our weather history database for the weather conditions in past years. The results will help you decide how hot, cold, wet, or windy it might be!

Date:

Astronomy

Nov. 23, 2012 Rise Set
Actual Time 7:09 AM CST 6:04 PM CST
Civil Twilight 6:45 AM CST 6:28 PM CST
Nautical Twilight 6:18 AM CST 6:56 PM CST
Astronomical Twilight 5:51 AM CST 7:23 PM CST
Moon 2:57 PM CST (11/23) 2:57 AM CST (11/23)
Length of Visible Light 11h 43m
Length of Day
10h 55m
Waxing Gibbous, 80% of the Moon is Illuminated
Nov 23
Waxing Gibbous
Nov 28
Full
Dec 6
Last Quarter
Dec 13
New
Dec 19
First Quarter

Hourly Weather History & Observations

Time (CST) Temp. Dew Point Humidity Pressure Visibility Wind Dir Wind Speed Gust Speed Precip Events Conditions
12:50 AM 50.0 °F 35.6 °F 58% 30.34 in 10.0 mi North 3.5 mph - N/A   Mostly Cloudy
2:49 AM 48.2 °F 37.4 °F 66% 30.34 in 10.0 mi North 5.8 mph - N/A   Mostly Cloudy
4:24 AM 51.8 °F 42.8 °F 71% 30.32 in 10.0 mi ENE 9.2 mph - N/A   Mostly Cloudy
4:44 AM 50.0 °F 42.8 °F 76% 30.33 in 10.0 mi NNE 4.6 mph - N/A   Mostly Cloudy
5:46 AM 51.8 °F 44.6 °F 76% 30.35 in 10.0 mi ENE 8.1 mph - N/A   Mostly Cloudy
7:54 AM 48.2 °F 42.8 °F 82% 30.40 in 10.0 mi North 5.8 mph - N/A   Mostly Cloudy
8:43 AM 50.0 °F 42.8 °F 76% 30.40 in 8.0 mi Calm Calm - N/A   Overcast
9:41 AM 57.2 °F 44.6 °F 63% 30.42 in 8.0 mi East 6.9 mph - N/A   Overcast
10:40 AM 57.2 °F 44.6 °F 63% 30.40 in 10.0 mi ENE 5.8 mph - N/A   Mostly Cloudy
11:40 AM 60.8 °F 44.6 °F 55% 30.39 in 9.0 mi ENE 11.5 mph - N/A   Mostly Cloudy
12:42 PM 66.2 °F 44.6 °F 46% 30.37 in 10.0 mi NE 16.1 mph - N/A   Mostly Cloudy
1:40 PM 66.2 °F 42.8 °F 43% 30.35 in 10.0 mi ENE 16.1 mph - N/A   Mostly Cloudy
2:44 PM 71.6 °F 37.4 °F 29% 30.24 in 10.0 mi NE 12.7 mph - N/A   Mostly Cloudy
3:41 PM 68.0 °F 39.2 °F 35% 30.28 in 10.0 mi East 6.9 mph - N/A   Scattered Clouds
4:40 PM 66.2 °F 39.2 °F 37% 30.28 in 10.0 mi East 11.5 mph - N/A   Mostly Cloudy
5:44 PM 57.2 °F 44.6 °F 63% 30.30 in 6.0 mi East 16.1 mph - N/A Rain Rain
6:41 PM 53.6 °F 44.6 °F 72% 30.36 in 6.0 mi SE 9.2 mph - N/A Rain Rain
8:50 PM 48.2 °F 42.8 °F 82% 30.42 in 8.0 mi ENE 12.7 mph - N/A   Mostly Cloudy
9:59 PM 48.2 °F 42.8 °F 82% 30.44 in 8.0 mi ENE 10.4 mph - N/A   Mostly Cloudy
10:42 PM 48.2 °F 42.8 °F 82% 30.43 in 10.0 mi ENE 8.1 mph - N/A   Mostly Cloudy
11:42 PM 48.2 °F 42.8 °F 82% 30.43 in 10.0 mi ENE 8.1 mph - N/A   Mostly Cloudy